QPF
0.01 0.02 0.05 0.02 0.02 0.03 0.05 0.07 0.07 0.07 0.05 0.04 0.04 0.05 0.05 0.04 0.03 0.03 0.04 0.03 0.04 0.04 0.04 0.03 0.03 0.03 0.03 0.03 0.02 0.04 0.04 0.04 0.05 0.06 0.05 0.05 0.05 0.05 0.05 0.04 0.05 0.05 0.06
0.01 0.02 0.04 0.02 0.01 0.02 0.03 0.03 0.06 0.09 0.08 0.05 0.04 0.05 0.04 0.02 0.01 0.02 0.02 0.02 0.03 0.03 0.02 0.02 0.01 0.01 0.02 0.02 0.02 0.03 0.03 0.04 0.05 0.08 0.09 0.06 0.05 0.05 0.04 0.04 0.04 0.04 0.04
0.02 0.02 0.02 0.02 0.01 0.02 0.02 0.02 0.02 0.03 0.04 0.03 0.03 0.04 0.03 0.03 0.01 0.01 0.01 0.01 0.02 0.02 0.02 0.01 0.01 0.01 0.01 0.01 0.02 0.03 0.03 0.04 0.06 0.11 0.14 0.07 0.04 0.03 0.05 0.05 0.04 0.04 0.05
0.02 0.03 0.03 0.03 0.02 0.02 0.02 0.01 0.01 0.02 0.02 0.02 0.02 0.04 0.04 0.03 0.02 0.02 0.02 0.02 0.02 0.02 0.03 0.02 0.02 0.02 0.01 0.02 0.03 0.02 0.03 0.04 0.05 0.08 0.07 0.06 0.05 0.04 0.04 0.04 0.04 0.03 0.04
0.02 0.02 0.03 0.05 0.03 0.03 0.02 0.01 0.01 0.02 0.02 0.03 0.04 0.04 0.04 0.04 0.03 0.03 0.03 0.04 0.03 0.04 0.04 0.04 0.04 0.03 0.03 0.03 0.04 0.04 0.04 0.04 0.05 0.06 0.06 0.05 0.04 0.04 0.03 0.02 0.03 0.03 0.03
0.03 0.03 0.04 0.05 0.05 0.04 0.03 0.02 0.02 0.03 0.05 0.06 0.05 0.03 0.03 0.04 0.03 0.03 0.03 0.03 0.03 0.04 0.04 0.04 0.04 0.04 0.04 0.05 0.05 0.04 0.04 0.05 0.06 0.08 0.09 0.05 0.03 0.03 0.02 0.02 0.03 0.03 0.03
0.05 0.04 0.03 0.05 0.04 0.03 0.02 0.03 0.03 0.03 0.05 0.05 0.04 0.03 0.04 0.04 0.04 0.03 0.03 0.03 0.03 0.03 0.03 0.03 0.03 0.03 0.04 0.04 0.04 0.05 0.05 0.06 0.07 0.08 0.06 0.03 0.02 0.03 0.03 0.02 0.03 0.03 0.03
0.03 0.02 0.03 0.04 0.04 0.04 0.04 0.04 0.04 0.04 0.04 0.04 0.03 0.03 0.03 0.03 0.04 0.04 0.03 0.04 0.04 0.03 0.03 0.03 0.03 0.02 0.02 0.02 0.03 0.03 0.04 0.05 0.06 0.06 0.05 0.03 0.02 0.02 0.02 0.03 0.04 0.04 0.03
0.04 0.04 0.04 0.04 0.04 0.04 0.04 0.06 0.07 0.04 0.04 0.04 0.04 0.04 0.04 0.04 0.04 0.04 0.05 0.05 0.05 0.05 0.05 0.04 0.04 0.03 0.02 0.02 0.02 0.02 0.02 0.02 0.03 0.04 0.04 0.03 0.02 0.02 0.02 0.03 0.04 0.06 0.04
0.04 0.03 0.03 0.04 0.04 0.05 0.04 0.05 0.07 0.05 0.04 0.05 0.06 0.06 0.06 0.06 0.06 0.05 0.05 0.06 0.07 0.08 0.07 0.06 0.04 0.04 0.03 0.02 0.03 0.03 0.03 0.02 0.02 0.02 0.02 0.02 0.02 0.02 0.02 0.02 0.04 0.07 0.08
0.03 0.02 0.02 0.03 0.04 0.05 0.05 0.05 0.05 0.05 0.06 0.09 0.09 0.08 0.08 0.07 0.06 0.06 0.06 0.06 0.06 0.06 0.07 0.07 0.05 0.04 0.03 0.03 0.02 0.03 0.05 0.04 0.02 0.02 0.02 0.02 0.03 0.02 0.02 0.03 0.04 0.06 0.07
0.04 0.04 0.03 0.03 0.04 0.05 0.06 0.07 0.07 0.05 0.05 0.06 0.07 0.07 0.07 0.06 0.05 0.05 0.05 0.05 0.06 0.05 0.04 0.05 0.05 0.04 0.03 0.03 0.02 0.04 0.06 0.04 0.03 0.02 0.02 0.02 0.03 0.03 0.03 0.04 0.04 0.05 0.05
0.03 0.04 0.04 0.04 0.04 0.06 0.09 0.07 0.07 0.07 0.07 0.05 0.05 0.06 0.06 0.05 0.05 0.04 0.03 0.04 0.04 0.04 0.04 0.05 0.06 0.07 0.05 0.03 0.03 0.04 0.04 0.03 0.03 0.03 0.02 0.02 0.03 0.03 0.03 0.03 0.03 0.04 0.05
0.02 0.03 0.03 0.03 0.04 0.08 0.16 0.15 0.09 0.08 0.08 0.06 0.05 0.05 0.07 0.08 0.07 0.06 0.05 0.05 0.05 0.03 0.04 0.05 0.05 0.06 0.06 0.05 0.04 0.03 0.02 0.02 0.03 0.03 0.03 0.02 0.03 0.03 0.04 0.03 0.04 0.04 0.05
0.04 0.04 0.04 0.05 0.06 0.08 0.10 0.14 0.10 0.07 0.07 0.06 0.07 0.08 0.11 0.10 0.09 0.07 0.05 0.05 0.05 0.04 0.04 0.04 0.04 0.05 0.05 0.06 0.05 0.03 0.03 0.03 0.04 0.03 0.03 0.03 0.04 0.04 0.05 0.05 0.05 0.04 0.04
0.06 0.05 0.04 0.04 0.06 0.07 0.08 0.06 0.07 0.05 0.05 0.04 0.04 0.05 0.07 0.05 0.05 0.05 0.05 0.05 0.06 0.05 0.05 0.05 0.04 0.05 0.04 0.05 0.05 0.05 0.03 0.03 0.03 0.03 0.02 0.02 0.02 0.03 0.04 0.04 0.04 0.04 0.03
0.05 0.04 0.04 0.03 0.05 0.06 0.10 0.12 0.09 0.06 0.05 0.05 0.06 0.06 0.04 0.04 0.04 0.05 0.05 0.06 0.05 0.04 0.04 0.04 0.04 0.04 0.05 0.05 0.05 0.05 0.03 0.02 0.02 0.02 0.01 0.01 0.01 0.01 0.01 0.02 0.03 0.03 0.03
0.03 0.03 0.03 0.05 0.06 0.05 0.06 0.10 0.12 0.08 0.08 0.08 0.07 0.05 0.03 0.03 0.03 0.03 0.03 0.04 0.04 0.03 0.02 0.03 0.03 0.03 0.04 0.04 0.04 0.04 0.03 0.02 0.02 0.01 0.01 0.01 0.01 0.02 0.03 0.03 0.04 0.04 0.04
0.04 0.03 0.04 0.05 0.06 0.06 0.06 0.08 0.08 0.09 0.10 0.08 0.06 0.04 0.03 0.03 0.03 0.03 0.02 0.03 0.04 0.03 0.02 0.02 0.02 0.03 0.03 0.03 0.04 0.04 0.03 0.02 0.02 0.01 0.01 0.01 0.01 0.02 0.04 0.04 0.04 0.04 0.04
0.04 0.03 0.04 0.07 0.09 0.09 0.08 0.07 0.06 0.08 0.09 0.08 0.07 0.05 0.04 0.03 0.03 0.02 0.02 0.03 0.03 0.02 0.02 0.02 0.02 0.02 0.02 0.03 0.04 0.04 0.03 0.03 0.03 0.02 0.01 0.01 0.02 0.02 0.02 0.02 0.02 0.03 0.03
0.04 0.05 0.05 0.06 0.07 0.09 0.08 0.07 0.08 0.08 0.07 0.07 0.09 0.09 0.07 0.06 0.06 0.04 0.04 0.04 0.03 0.04 0.04 0.04 0.04 0.05 0.05 0.05 0.04 0.04 0.04 0.04 0.03 0.03 0.03 0.03 0.02 0.02 0.02 0.01 0.01 0.02 0.03
0.04 0.05 0.06 0.06 0.06 0.06 0.06 0.05 0.06 0.06 0.05 0.06 0.07 0.08 0.09 0.09 0.09 0.06 0.05 0.06 0.06 0.07 0.08 0.08 0.08 0.08 0.08 0.07 0.06 0.04 0.04 0.04 0.03 0.02 0.03 0.03 0.04 0.03 0.02 0.01 0.01 0.02 0.03
0.03 0.03 0.04 0.05 0.05 0.05 0.05 0.06 0.06 0.05 0.05 0.05 0.05 0.06 0.09 0.10 0.09 0.08 0.07 0.07 0.07 0.08 0.08 0.07 0.07 0.07 0.07 0.06 0.05 0.05 0.04 0.05 0.05 0.04 0.03 0.04 0.04 0.04 0.03 0.02 0.01 0.02 0.02
0.03 0.03 0.04 0.05 0.05 0.05 0.05 0.05 0.05 0.05 0.07 0.07 0.07 0.08 0.09 0.09 0.09 0.08 0.07 0.07 0.07 0.08 0.09 0.07 0.05 0.05 0.05 0.04 0.04 0.04 0.04 0.04 0.04 0.04 0.03 0.03 0.04 0.04 0.04 0.04 0.03 0.02 0.02
0.03 0.04 0.04 0.04 0.04 0.04 0.03 0.04 0.05 0.06 0.07 0.07 0.07 0.08 0.09 0.09 0.07 0.07 0.06 0.06 0.06 0.07 0.08 0.06 0.04 0.03 0.03 0.02 0.02 0.01 0.02 0.02 0.02 0.03 0.03 0.03 0.03 0.04 0.04 0.04 0.03 0.03 0.02
0.03 0.05 0.05 0.05 0.04 0.04 0.04 0.04 0.05 0.06 0.07 0.07 0.09 0.09 0.10 0.10 0.07 0.07 0.06 0.05 0.05 0.05 0.05 0.05 0.05 0.03 0.03 0.01 0.01 0.01 0.01 0.01 0.01 0.02 0.02 0.02 0.03 0.04 0.04 0.04 0.04 0.04 0.03
MSLP
1005.18 1005.04 1004.96 1004.94 1004.96 1005.04 1005.19 1005.45 1005.82 1006.32 1006.91 1007.56 1008.23 1008.86 1009.42 1009.86 1010.17 1010.38 1010.52 1010.62 1010.73 1010.88 1011.10 1011.38 1011.72 1012.08 1012.44 1012.77 1013.07 1013.32 1013.54 1013.73 1013.92 1014.10 1014.27 1014.41 1014.52 1014.57 1014.56 1014.47 1014.34 1014.20 1014.06
1006.39 1006.18 1006.01 1005.88 1005.77 1005.73 1005.77 1005.92 1006.21 1006.64 1007.18 1007.81 1008.46 1009.07 1009.59 1009.98 1010.24 1010.38 1010.45 1010.49 1010.55 1010.67 1010.87 1011.15 1011.48 1011.84 1012.20 1012.52 1012.79 1013.03 1013.23 1013.42 1013.62 1013.83 1014.06 1014.27 1014.45 1014.57 1014.62 1014.58 1014.47 1014.31 1014.15
1007.94 1007.67 1007.43 1007.21 1007.01 1006.86 1006.80 1006.84 1007.03 1007.37 1007.82 1008.36 1008.92 1009.43 1009.86 1010.15 1010.31 1010.36 1010.35 1010.33 1010.35 1010.45 1010.65 1010.94 1011.28 1011.65 1012.00 1012.31 1012.57 1012.77 1012.96 1013.14 1013.34 1013.58 1013.85 1014.13 1014.38 1014.58 1014.69 1014.70 1014.63 1014.48 1014.30
1009.65 1009.34 1009.05 1008.78 1008.52 1008.31 1008.16 1008.11 1008.20 1008.41 1008.74 1009.13 1009.54 1009.90 1010.16 1010.31 1010.33 1010.27 1010.18 1010.11 1010.11 1010.21 1010.43 1010.75 1011.12 1011.51 1011.87 1012.17 1012.41 1012.59 1012.75 1012.91 1013.11 1013.36 1013.66 1013.99 1014.30 1014.57 1014.74 1014.81 1014.78 1014.65 1014.47
1011.36 1011.02 1010.71 1010.42 1010.14 1009.89 1009.68 1009.56 1009.54 1009.63 1009.80 1010.01 1010.22 1010.38 1010.45 1010.41 1010.28 1010.10 1009.93 1009.81 1009.81 1009.93 1010.19 1010.55 1010.98 1011.40 1011.78 1012.09 1012.31 1012.48 1012.60 1012.74 1012.92 1013.17 1013.48 1013.83 1014.18 1014.50 1014.73 1014.85 1014.85 1014.75 1014.59
1012.89 1012.55 1012.25 1011.97 1011.69 1011.43 1011.20 1011.03 1010.92 1010.87 1010.88 1010.90 1010.89 1010.83 1010.68 1010.45 1010.17 1009.87 1009.61 1009.47 1009.46 1009.62 1009.93 1010.35 1010.83 1011.30 1011.71 1012.03 1012.25 1012.39 1012.49 1012.60 1012.75 1012.97 1013.27 1013.62 1013.99 1014.33 1014.59 1014.75 1014.79 1014.73 1014.59
1014.13 1013.80 1013.53 1013.29 1013.04 1012.81 1012.58 1012.37 1012.19 1012.03 1011.88 1011.72 1011.51 1011.23 1010.87 1010.46 1010.02 1009.61 1009.29 1009.11 1009.11 1009.30 1009.66 1010.14 1010.67 1011.18 1011.62 1011.95 1012.18 1012.30 1012.37 1012.45 1012.56 1012.75 1013.02 1013.35 1013.71 1014.06 1014.34 1014.52 1014.60 1014.58 1014.47
1015.03 1014.74 1014.51 1014.31 1014.12 1013.92 1013.71 1013.49 1013.26 1013.02 1012.75 1012.43 1012.04 1011.57 1011.04 1010.47 1009.89 1009.39 1009.01 1008.81 1008.81 1009.02 1009.41 1009.93 1010.49 1011.03 1011.50 1011.84 1012.06 1012.18 1012.23 1012.28 1012.36 1012.51 1012.74 1013.03 1013.37 1013.70 1013.99 1014.20 1014.31 1014.33 1014.27
1015.62 1015.37 1015.20 1015.05 1014.91 1014.75 1014.57 1014.36 1014.11 1013.81 1013.45 1013.01 1012.49 1011.89 1011.22 1010.53 1009.86 1009.28 1008.85 1008.62 1008.61 1008.82 1009.21 1009.74 1010.31 1010.86 1011.33 1011.68 1011.91 1012.02 1012.07 1012.10 1012.15 1012.27 1012.46 1012.72 1013.03 1013.34 1013.63 1013.85 1014.00 1014.06 1014.06
1015.98 1015.78 1015.65 1015.55 1015.45 1015.33 1015.17 1014.98 1014.72 1014.39 1013.99 1013.49 1012.89 1012.21 1011.46 1010.69 1009.96 1009.33 1008.86 1008.59 1008.55 1008.73 1009.10 1009.60 1010.16 1010.70 1011.16 1011.51 1011.75 1011.87 1011.92 1011.95 1012.00 1012.10 1012.26 1012.49 1012.77 1013.07 1013.35 1013.58 1013.76 1013.87 1013.91
1016.24 1016.08 1015.98 1015.90 1015.81 1015.71 1015.58 1015.39 1015.14 1014.81 1014.39 1013.87 1013.25 1012.54 1011.77 1010.97 1010.21 1009.55 1009.05 1008.75 1008.67 1008.80 1009.11 1009.56 1010.07 1010.58 1011.02 1011.37 1011.62 1011.76 1011.84 1011.89 1011.95 1012.05 1012.20 1012.41 1012.67 1012.94 1013.21 1013.46 1013.66 1013.81 1013.90
1016.51 1016.38 1016.27 1016.19 1016.09 1015.98 1015.84 1015.66 1015.41 1015.09 1014.68 1014.18 1013.58 1012.88 1012.12 1011.34 1010.59 1009.92 1009.40 1009.07 1008.94 1009.01 1009.25 1009.63 1010.08 1010.54 1010.96 1011.30 1011.56 1011.74 1011.86 1011.95 1012.04 1012.15 1012.30 1012.50 1012.73 1012.99 1013.25 1013.50 1013.71 1013.89 1014.03
1016.87 1016.73 1016.60 1016.47 1016.34 1016.19 1016.02 1015.82 1015.57 1015.26 1014.88 1014.41 1013.85 1013.20 1012.49 1011.75 1011.03 1010.39 1009.86 1009.51 1009.33 1009.33 1009.50 1009.80 1010.18 1010.59 1010.98 1011.33 1011.61 1011.82 1011.98 1012.12 1012.24 1012.38 1012.53 1012.72 1012.94 1013.17 1013.41 1013.65 1013.87 1014.06 1014.22
1017.31 1017.13 1016.95 1016.76 1016.56 1016.35 1016.13 1015.90 1015.64 1015.33 1014.97 1014.54 1014.03 1013.45 1012.80 1012.13 1011.47 1010.86 1010.35 1009.99 1009.78 1009.73 1009.83 1010.06 1010.37 1010.73 1011.09 1011.43 1011.72 1011.97 1012.17 1012.35 1012.50 1012.66 1012.82 1012.99 1013.18 1013.39 1013.60 1013.81 1014.02 1014.21 1014.38
1017.78 1017.54 1017.28 1017.00 1016.72 1016.44 1016.16 1015.88 1015.59 1015.29 1014.94 1014.55 1014.09 1013.58 1013.01 1012.41 1011.81 1011.26 1010.79 1010.43 1010.21 1010.13 1010.18 1010.35 1010.60 1010.91 1011.24 1011.56 1011.86 1012.13 1012.36 1012.56 1012.73 1012.89 1013.05 1013.20 1013.36 1013.52 1013.70 1013.88 1014.07 1014.25 1014.41
1018.15 1017.84 1017.49 1017.13 1016.77 1016.41 1016.06 1015.74 1015.42 1015.11 1014.77 1014.41 1014.00 1013.54 1013.04 1012.53 1012.01 1011.52 1011.10 1010.78 1010.56 1010.46 1010.48 1010.61 1010.81 1011.08 1011.37 1011.66 1011.95 1012.22 1012.45 1012.66 1012.83 1012.98 1013.12 1013.24 1013.37 1013.49 1013.63 1013.77 1013.93 1014.10 1014.26
1018.31 1017.92 1017.49 1017.06 1016.62 1016.20 1015.81 1015.44 1015.10 1014.77 1014.44 1014.09 1013.72 1013.32 1012.89 1012.44 1012.00 1011.60 1011.24 1010.96 1010.77 1010.68 1010.69 1010.78 1010.95 1011.17 1011.42 1011.68 1011.94 1012.18 1012.39 1012.58 1012.73 1012.86 1012.97 1013.07 1013.16 1013.25 1013.35 1013.47 1013.60 1013.75 1013.90
1018.16 1017.69 1017.21 1016.72 1016.24 1015.79 1015.37 1014.97 1014.61 1014.27 1013.94 1013.60 1013.26 1012.89 1012.52 1012.15 1011.79 1011.45 1011.17 1010.95 1010.81 1010.74 1010.75 1010.83 1010.96 1011.14 1011.34 1011.55 1011.76 1011.96 1012.14 1012.29 1012.42 1012.52 1012.61 1012.68 1012.74 1012.81 1012.90 1013.00 1013.12 1013.25 1013.40
1017.66 1017.15 1016.63 1016.12 1015.63 1015.17 1014.74 1014.34 1013.97 1013.63 1013.29 1012.96 1012.63 1012.30 1011.97 1011.65 1011.36 1011.11 1010.90 1010.74 1010.65 1010.61 1010.64 1010.71 1010.82 1010.96 1011.11 1011.27 1011.43 1011.58 1011.71 1011.83 1011.93 1012.01 1012.09 1012.15 1012.21 1012.28 1012.36 1012.47 1012.58 1012.72 1012.85
1016.88 1016.34 1015.82 1015.32 1014.84 1014.40 1013.98 1013.59 1013.22 1012.87 1012.53 1012.20 1011.88 1011.57 1011.27 1011.00 1010.77 1010.58 1010.44 1010.35 1010.31 1010.31 1010.36 1010.43 1010.52 1010.63 1010.74 1010.86 1010.97 1011.07 1011.17 1011.26 1011.35 1011.43 1011.50 1011.58 1011.66 1011.75 1011.86 1011.97 1012.10 1012.23 1012.36
1015.94 1015.40 1014.89 1014.42 1013.97 1013.55 1013.16 1012.78 1012.42 1012.06 1011.71 1011.38 1011.05 1010.75 1010.47 1010.24 1010.06 1009.92 1009.84 1009.81 1009.82 1009.86 1009.92 1010.00 1010.09 1010.18 1010.26 1010.34 1010.42 1010.50 1010.58 1010.66 1010.75 1010.85 1010.96 1011.07 1011.19 1011.32 1011.45 1011.59 1011.73 1011.87 1011.98
1015.01 1014.48 1013.99 1013.55 1013.13 1012.74 1012.36 1011.99 1011.63 1011.26 1010.90 1010.54 1010.21 1009.90 1009.64 1009.43 1009.27 1009.18 1009.14 1009.16 1009.21 1009.28 1009.37 1009.46 1009.55 1009.63 1009.71 1009.78 1009.84 1009.92 1010.00 1010.10 1010.22 1010.35 1010.50 1010.66 1010.83 1011.00 1011.17 1011.33 1011.48 1011.61 1011.70
1014.24 1013.73 1013.26 1012.83 1012.44 1012.06 1011.68 1011.31 1010.92 1010.53 1010.14 1009.76 1009.41 1009.09 1008.82 1008.62 1008.48 1008.42 1008.41 1008.45 1008.53 1008.64 1008.75 1008.86 1008.96 1009.05 1009.13 1009.20 1009.28 1009.37 1009.48 1009.61 1009.77 1009.95 1010.14 1010.35 1010.56 1010.77 1010.96 1011.13 1011.28 1011.39 1011.45
1013.75 1013.25 1012.79 1012.37 1011.97 1011.57 1011.18 1010.78 1010.36 1009.93 1009.51 1009.09 1008.71 1008.37 1008.09 1007.89 1007.75 1007.70 1007.70 1007.76 1007.86 1007.98 1008.11 1008.23 1008.35 1008.45 1008.55 1008.65 1008.75 1008.87 1009.02 1009.19 1009.38 1009.60 1009.83 1010.07 1010.31 1010.53 1010.73 1010.89 1011.02 1011.10 1011.12
1013.60 1013.10 1012.63 1012.19 1011.76 1011.33 1010.90 1010.45 1009.98 1009.51 1009.04 1008.59 1008.17 1007.81 1007.51 1007.29 1007.16 1007.10 1007.10 1007.16 1007.26 1007.38 1007.51 1007.64 1007.77 1007.89 1008.01 1008.13 1008.26 1008.41 1008.59 1008.79 1009.02 1009.25 1009.51 1009.75 1009.99 1010.20 1010.37 1010.51 1010.59 1010.63 1010.61
1013.77 1013.26 1012.76 1012.28 1011.81 1011.33 1010.83 1010.33 1009.81 1009.29 1008.78 1008.29 1007.85 1007.47 1007.15 1006.92 1006.76 1006.68 1006.67 1006.72 1006.80 1006.90 1007.02 1007.15 1007.27 1007.40 1007.52 1007.66 1007.81 1007.98 1008.17 1008.38 1008.61 1008.85 1009.08 1009.31 1009.51 1009.68 1009.81 1009.89 1009.92 1009.91 1009.85
Thickness
5807 5808 5806 5805 5802 5797 5793 5790 5787 5784 5782 5777 5773 5769 5766 5766 5765 5765 5764 5762 5760 5758 5756 5753 5751 5750 5748 5746 5745 5743 5740 5737 5737 5733 5731 5732 5734 5734 5735 5735 5734 5734 5734
5799 5801 5801 5801 5798 5794 5790 5787 5785 5781 5779 5776 5773 5770 5767 5764 5764 5763 5762 5760 5758 5756 5754 5752 5749 5748 5746 5744 5742 5740 5737 5735 5735 5730 5724 5720 5723 5728 5732 5732 5731 5731 5731
5796 5796 5795 5794 5793 5790 5789 5788 5784 5781 5779 5776 5772 5768 5764 5761 5759 5758 5758 5758 5756 5754 5752 5750 5748 5746 5744 5741 5740 5739 5735 5731 5731 5730 5724 5716 5713 5718 5725 5728 5728 5728 5728
5795 5794 5792 5789 5789 5788 5787 5785 5782 5779 5777 5774 5769 5764 5758 5755 5755 5756 5755 5755 5754 5752 5750 5748 5746 5744 5742 5740 5738 5737 5734 5731 5727 5727 5727 5724 5721 5715 5714 5721 5724 5725 5725
5792 5789 5788 5788 5789 5787 5783 5781 5778 5775 5774 5771 5767 5762 5758 5756 5755 5754 5752 5751 5751 5750 5748 5746 5744 5741 5739 5738 5736 5735 5733 5731 5727 5725 5724 5722 5720 5718 5713 5711 5715 5719 5722
5789 5787 5786 5786 5783 5783 5779 5777 5774 5771 5770 5766 5763 5759 5756 5754 5751 5749 5747 5747 5746 5746 5745 5744 5741 5739 5737 5735 5734 5733 5731 5729 5727 5725 5723 5720 5717 5715 5713 5710 5710 5711 5716
5782 5780 5779 5778 5777 5777 5776 5774 5770 5766 5765 5763 5760 5758 5754 5752 5749 5747 5745 5743 5742 5741 5741 5740 5738 5736 5735 5733 5733 5731 5729 5728 5725 5724 5722 5721 5720 5718 5715 5710 5708 5707 5710
5775 5776 5776 5775 5773 5772 5772 5770 5766 5763 5761 5759 5757 5755 5753 5749 5747 5745 5744 5741 5740 5739 5738 5737 5736 5734 5732 5731 5730 5728 5726 5725 5723 5722 5721 5719 5719 5718 5715 5711 5707 5702 5701
5770 5771 5771 5771 5769 5767 5767 5765 5762 5759 5756 5755 5753 5751 5749 5746 5744 5742 5741 5739 5737 5736 5735 5733 5731 5730 5728 5727 5726 5724 5722 5721 5720 5719 5718 5716 5716 5715 5714 5712 5708 5701 5694
5763 5764 5764 5764 5764 5764 5763 5760 5757 5754 5752 5750 5748 5747 5744 5742 5740 5738 5736 5734 5732 5732 5730 5728 5726 5724 5723 5722 5721 5719 5718 5717 5715 5715 5714 5712 5712 5711 5710 5708 5706 5703 5697
5755 5755 5755 5755 5756 5757 5755 5752 5749 5747 5745 5744 5742 5740 5738 5737 5735 5732 5731 5729 5727 5726 5725 5723 5721 5719 5717 5717 5715 5714 5713 5711 5710 5709 5708 5707 5708 5706 5705 5704 5702 5699 5696
5749 5749 5748 5747 5746 5747 5746 5743 5742 5740 5739 5738 5735 5733 5731 5730 5728 5726 5725 5724 5722 5721 5720 5718 5716 5715 5713 5711 5710 5708 5707 5705 5703 5703 5702 5701 5701 5700 5699 5698 5697 5694 5693
5740 5740 5740 5739 5738 5737 5735 5734 5733 5733 5732 5731 5729 5726 5724 5722 5720 5719 5719 5718 5716 5715 5714 5713 5711 5709 5708 5706 5705 5704 5702 5700 5698 5697 5696 5695 5694 5693 5692 5691 5690 5689 5688
5732 5731 5730 5730 5730 5729 5727 5726 5725 5725 5724 5723 5722 5719 5717 5716 5714 5714 5713 5711 5710 5709 5707 5707 5706 5704 5703 5702 5701 5699 5696 5694 5693 5692 5691 5690 5689 5687 5686 5685 5683 5682 5681
5724 5723 5722 5722 5722 5721 5720 5720 5717 5717 5718 5716 5714 5712 5711 5710 5708 5706 5706 5705 5704 5702 5701 5700 5699 5699 5698 5697 5695 5693 5691 5688 5687 5686 5686 5685 5685 5683 5682 5681 5678 5677 5674
5717 5717 5716 5715 5714 5713 5713 5712 5710 5710 5709 5708 5706 5706 5704 5703 5701 5699 5698 5697 5696 5695 5694 5693 5692 5692 5691 5690 5690 5687 5684 5683 5681 5679 5679 5679 5678 5678 5677 5676 5676 5674 5671
5711 5711 5710 5709 5707 5706 5706 5704 5704 5703 5701 5700 5699 5698 5697 5695 5694 5694 5691 5689 5688 5687 5686 5685 5685 5684 5683 5683 5683 5681 5679 5677 5675 5674 5672 5673 5672 5671 5670 5670 5670 5669 5668
5706 5705 5705 5703 5701 5700 5699 5697 5695 5694 5693 5692 5691 5691 5690 5688 5687 5685 5683 5683 5682 5680 5679 5678 5678 5677 5677 5677 5676 5675 5674 5671 5670 5669 5667 5665 5664 5664 5663 5663 5662 5661 5661
5701 5700 5699 5697 5694 5692 5692 5689 5686 5685 5685 5684 5684 5684 5683 5681 5679 5677 5676 5676 5675 5673 5672 5672 5671 5670 5670 5670 5670 5669 5667 5665 5664 5663 5662 5660 5658 5658 5658 5656 5655 5654 5654
5693 5692 5691 5688 5685 5684 5683 5680 5678 5678 5678 5678 5677 5677 5676 5674 5672 5671 5670 5669 5668 5667 5666 5665 5664 5664 5663 5663 5663 5662 5660 5658 5656 5656 5655 5655 5654 5654 5653 5651 5649 5648 5647
5685 5685 5682 5678 5677 5678 5674 5671 5670 5671 5672 5672 5671 5670 5669 5668 5666 5664 5663 5661 5660 5659 5657 5656 5656 5656 5656 5656 5656 5655 5652 5651 5649 5648 5648 5648 5648 5648 5647 5646 5645 5644 5643
5676 5676 5672 5670 5670 5670 5667 5664 5663 5664 5665 5665 5664 5662 5661 5661 5660 5657 5655 5654 5652 5650 5648 5647 5646 5647 5647 5648 5648 5646 5645 5644 5643 5643 5643 5643 5642 5642 5642 5641 5640 5639 5637
5667 5667 5665 5663 5663 5663 5662 5658 5657 5658 5658 5657 5656 5655 5654 5653 5652 5650 5647 5645 5644 5642 5640 5639 5639 5638 5638 5639 5639 5639 5638 5637 5637 5637 5637 5637 5636 5636 5635 5635 5635 5633 5631
5657 5658 5656 5654 5654 5654 5654 5653 5652 5652 5651 5650 5649 5648 5646 5644 5643 5642 5640 5638 5636 5634 5632 5631 5631 5630 5630 5630 5630 5630 5630 5630 5630 5630 5630 5630 5630 5629 5629 5628 5627 5626 5625
5649 5649 5648 5647 5647 5647 5647 5648 5647 5645 5643 5642 5641 5640 5638 5636 5633 5632 5631 5631 5630 5629 5627 5626 5625 5623 5623 5624 5624 5622 5622 5622 5622 5621 5621 5621 5621 5621 5621 5621 5620 5619 5619
5640 5640 5640 5640 5640 5640 5641 5641 5640 5639 5636 5634 5633 5632 5630 5628 5625 5623 5621 5621 5622 5623 5623 5622 5621 5620 5619 5618 5617 5616 5616 5615 5614 5613 5613 5613 5613 5613 5614 5614 5614 5613 5612